Change the Weather History Date:

Friday, May 2, 2014

  Actual Average Record
Temperature  
Mean Temperature 50 °F -  
Max Temperature 59 °F 70 °F 90 °F (1951)
Min Temperature 43 °F 47 °F 32 °F (1961)
Degree Days  
Heating Degree Days 15    
Moisture  
Dew Point 41 °F    
Average Humidity 66    
Maximum Humidity 89    
Minimum Humidity 55    
Precipitation  
Precipitation 0.00 in - - ()
Sea Level Pressure  
Sea Level Pressure 29.91 in    
Wind  
Wind Speed 9 mph (SW)    
Max Wind Speed 14 mph    
Max Gust Speed 20 mph    
Visibility 10 miles    
Events      
Averages and records for this station are not official NWS values.
T = Trace of Precipitation, MM = Missing Value Source: NWS Daily Summary

Daily Weather History Graph

Daily Weather History Graph

Search for Another Location

Airport or City:

Trip Planner

Search our weather history database for the weather conditions in past years. The results will help you decide how hot, cold, wet, or windy it might be!

Date:

Astronomy

May. 02, 2014 Rise Set
Actual Time 6:38 AM EDT 8:31 PM EDT
Civil Twilight 6:09 AM EDT 9:00 PM EDT
Nautical Twilight 5:34 AM EDT 9:35 PM EDT
Astronomical Twilight 4:56 AM EDT 10:13 PM EDT
Moon 9:15 AM EDT (5/2) 11:52 PM EDT (5/2)
Length of Visible Light 14h 51m
Length of Day
13h 53m
Waxing Crescent, 12% of the Moon is Illuminated
May 2
Waxing Crescent
May 6
First Quarter
May 14
Full
May 21
Last Quarter
May 28
New

Hourly Weather History & Observations

Time (EDT) Temp. Windchill Dew Point Humidity Pressure Visibility Wind Dir Wind Speed Gust Speed Precip Events Conditions
12:53 AM 50.0 °F - 37.9 °F 63% 29.93 in 10.0 mi WSW 10.4 mph - N/A   Scattered Clouds
1:53 AM 46.9 °F - 39.0 °F 74% 29.93 in 10.0 mi WSW 8.1 mph - N/A   Clear
2:53 AM 45.0 °F 40.6 °F 39.0 °F 80% 29.91 in 10.0 mi SW 8.1 mph - N/A   Clear
3:53 AM 48.0 °F - 39.9 °F 74% 29.91 in 10.0 mi SW 9.2 mph - N/A   Overcast
4:53 AM 46.0 °F 43.1 °F 39.9 °F 79% 29.91 in 10.0 mi SSW 5.8 mph - N/A   Mostly Cloudy
5:53 AM 43.0 °F 39.5 °F 39.9 °F 89% 29.91 in 10.0 mi SSW 5.8 mph - N/A   Clear
6:53 AM 46.0 °F 41.9 °F 39.9 °F 79% 29.91 in 10.0 mi SSW 8.1 mph - N/A   Overcast
7:53 AM 48.0 °F - 39.9 °F 74% 29.93 in 10.0 mi SW 5.8 mph - N/A   Mostly Cloudy
8:53 AM 51.1 °F - 41.0 °F 68% 29.93 in 10.0 mi SW 11.5 mph - N/A   Mostly Cloudy
9:53 AM 54.0 °F - 43.0 °F 66% 29.93 in 10.0 mi SW 11.5 mph - N/A   Mostly Cloudy
10:53 AM 54.0 °F - 43.0 °F 66% 29.93 in 10.0 mi WSW 12.7 mph - N/A   Overcast
11:53 AM 55.0 °F - 42.1 °F 62% 29.93 in 10.0 mi WSW 11.5 mph - N/A   Overcast
12:53 PM 57.0 °F - 43.0 °F 59% 29.92 in 10.0 mi SW 11.5 mph 19.6 mph N/A   Overcast
1:53 PM 57.2 °F - 42.8 °F 59% 29.91 in 10.0 mi WNW 10.4 mph - N/A   Overcast
2:53 PM 55.9 °F - 41.0 °F 57% 29.90 in 10.0 mi WSW 12.7 mph - N/A   Overcast
3:53 PM 55.9 °F - 39.9 °F 55% 29.89 in 10.0 mi WSW 13.8 mph 18.4 mph N/A   Overcast
4:53 PM 55.9 °F - 39.9 °F 55% 29.89 in 10.0 mi WSW 10.4 mph - N/A   Overcast
5:53 PM 57.0 °F - 42.1 °F 57% 29.88 in 10.0 mi SW 9.2 mph - N/A   Overcast
6:53 PM 57.0 °F - 42.1 °F 57% 29.88 in 10.0 mi SW 9.2 mph - N/A   Overcast
7:53 PM 55.9 °F - 41.0 °F 57% 29.89 in 10.0 mi SSW 9.2 mph - N/A   Overcast
8:53 PM 55.0 °F - 41.0 °F 59% 29.90 in 10.0 mi SW 5.8 mph - N/A   Overcast
9:53 PM 55.0 °F - 41.0 °F 59% 29.90 in 10.0 mi WSW 6.9 mph - N/A   Overcast
10:53 PM 54.0 °F - 41.0 °F 62% 29.92 in 10.0 mi West 5.8 mph - N/A   Overcast
11:53 PM 52.0 °F - 39.9 °F 63% 29.91 in 10.0 mi WSW 8.1 mph - N/A   Mostly Cloudy